Meteo Giornale » Osservazioni meteo Senegal » Tambacounda
ore: 01:00 - Osservazioni Meteo Tambacounda
Lat. 13° 46' N Lon. 13° 41' W Alt. 49 metri s.l.m.
29 °C
Sereno
Temp. 24 Ore
25 °C
35 °C
Ovest/Sud-Ovest
14.8 Km/h
Dew point 26 °C
Umidità 83 %
Visibilità 10 Km
Il sole sorge alle ore 06:43
Il sole tramonta alle ore 19:06
| Data e Ora | Cielo e Fenomeni | T °C | DP °C | Um. % | Pres. hPa | Vis. km | Vento km/h | |
|---|---|---|---|---|---|---|---|---|
| Oggi h: 01:00 | Sereno | 29 | 26 | 83 | 1011 | 10 | O/SO 14.8 | |
| Oggi h: 00:00 | Poco Nuvoloso | 29 | 27 | 89 | 1012 | 10 | O/SO 7.4 | |
| Ieri h: 23:00 | Poco Nuvoloso | 30 | 27 | 84 | 1012 | 10 | SO 7.4 | |
| Ieri h: 22:00 | Sereno | 30 | 27 | 84 | 1012 | 10 | SO 7.4 | |
| Ieri h: 21:00 | Sereno | 31 | 27 | 79 | 1011 | 10 | O/SO 7.4 | |
| Ieri h: 20:00 | Sereno | 31 | 27 | 79 | 1010 | 10 | O 7.4 | |
| Ieri h: 19:00 | Poco Nuvoloso | 33 | 27 | 70 | 1010 | 10 | O 7.4 | |
| Ieri h: 18:00 | Poco Nuvoloso | 34 | 26 | 63 | 1009 | 10 | O 11.1 | |
| Ieri h: 17:00 | Nuvoloso | 35 | 27 | 63 | 1009 | 10 | O 7.4 | |
| Ieri h: 16:00 | Nuvoloso | 35 | 27 | 63 | 1009 | 10 | N 7.4 | |
| Ieri h: 15:00 | Nuvoloso | 35 | 27 | 63 | 1009 | 10 | O 7.4 | |
| Ieri h: 14:00 | Nuvoloso | 35 | 27 | 63 | 1010 | 10 | NO 7.4 | |
| Ieri h: 13:00 | Nuvoloso | 34 | 27 | 67 | 1011 | 10 | N 3.7 | |
| Ieri h: 11:00 | Poco Nuvoloso | 32 | 26 | 70 | 1013 | 10 | N 3.7 | |
| Ieri h: 10:00 | Sereno | 31 | 26 | 74 | 1012 | 10 | O/NO 7.4 | |
| Ieri h: 09:00 | Sereno | 29 | 25 | 79 | 1012 | 10 | NO 7.4 | |
| Ieri h: 08:00 | Sereno | 27 | 25 | 88 | 1012 | 10 | N 3.7 | |
| Ieri h: 07:00 | Poco Nuvoloso | 25 | 25 | 100 | 1012 | 10 | N 0 | |
| Ieri h: 06:00 | Sereno | 26 | 25 | 94 | 1011 | 10 | N 3.7 | |
| Ieri h: 05:00 | Sereno | 26 | 25 | 94 | 1011 | 10 | N 3.7 | |
| Ieri h: 04:00 | Sereno | 26 | 25 | 94 | 1011 | 10 | N 3.7 | |
| Ieri h: 03:00 | Sereno | 26 | 26 | 100 | 1011 | 10 | N 3.7 | |



